This is the latest recevied weather packets stored in our database for station/object N7JP. If no packets are shown the sender has not sent any weather packets the latest 10 day(s).
| Time | Temp. | Humidity | Pressure | Rain* | Wind** | Luminosity | Snow |
|---|---|---|---|---|---|---|---|
| 1777110423 | 6.11° C | 83% | 1009.6 hPa | 0 mm | - | - | - |
| 1777109525 | 6.67° C | 82% | 1009.7 hPa | 0 mm | - | - | - |
| 1777108624 | 7.22° C | 81% | 1009.7 hPa | 0 mm | - | - | - |
| 1777107700 | 7.78° C | 80% | 1009.8 hPa | 0 mm | - | - | - |
| 1777106798 | 7.78° C | 76% | 1009.8 hPa | 0 mm | - | - | - |
| 1777105898 | 7.78° C | 77% | 1009.8 hPa | 0 mm | - | - | - |
| 1777104997 | 7.22° C | 80% | 1009.9 hPa | 0 mm | - | - | - |
| 1777104095 | 7.22° C | 80% | 1009.8 hPa | 0 mm | - | - | - |
| 1777103186 | 6.67° C | 83% | 1009.8 hPa | 0 mm | - | - | - |
| 1777102287 | 6.67° C | 82% | 1009.8 hPa | 0 mm | - | - | - |
| 1777101382 | 7.22° C | 80% | 1009.8 hPa | 0 mm | - | - | - |
| 1777100481 | 7.78° C | 75% | 1009.8 hPa | 0 mm | - | - | - |
| 1777099554 | 7.78° C | 77% | 1009.8 hPa | 0 mm | - | - | - |
| 1777098653 | 7.78° C | 75% | 1009.8 hPa | 0 mm | - | - | - |
| 1777097755 | 7.78° C | 76% | 1009.9 hPa | 0 mm | - | - | - |
| 1777096843 | 7.78° C | 76% | 1010.1 hPa | 0 mm | - | - | - |
| 1777095935 | 8.33° C | 72% | 1010 hPa | 0 mm | - | - | - |
| 1777095028 | 8.33° C | 69% | 1010.1 hPa | 0 mm | - | - | - |
| 1777094124 | 8.33° C | 73% | 1010.1 hPa | 0 mm | - | - | - |
| 1777093223 | 8.33° C | 73% | 1010.1 hPa | 0 mm | - | - | - |
| 1777092321 | 8.33° C | 73% | 1010.2 hPa | 0 mm | - | - | - |
| 1777091421 | 8.33° C | 70% | 1010.2 hPa | 0 mm | - | - | - |
| 1777090523 | 8.89° C | 70% | 1010.2 hPa | 0 mm | - | - | - |
| 1777089596 | 9.44° C | 66% | 1010.1 hPa | 0 mm | - | - | - |
| 1777088697 | 10° C | 70% | 1010.1 hPa | 0 mm | - | - | - |
* Rain latest hour (hover to see other rain measurements)
** Current wind speed in m/s (hover to see current wind gust speed)